FENGYUN 1C DEB, 31313

Orbit data source: Space-Track

FENGYUN 1C DEB, 31313 is space debris in SSO originally from a launch on Mon, 10 May 1999 UTC launched from the Taiyaun Space Center, China (TSC). Fengyun 1C debris stems from the Chinese weather satellite Fengyun-1C, which was intentionally destroyed by a Chinese anti-satellite missile in 2007. This event dramatically increased the amount of space debris, with thousands of trackable fragments posing hazards to satellites and human spaceflight. The Fengyun 1C debris cloud has become a focal point in discussions about space sustainability and the need for international regulations to prevent the creation of new debris.

Loading next visibility...
Identifier
31313, 1999-025BPR
Orbit
SSO
Country
Flag of CNCN / PRC
Related business
Manufacturer
Unknown
Mission
Spacecraft
Bus & Motor
Unknown
Mass
Unknown
Launch date (UTC)
1999-05-10 (27 years ago)
Launch vehicle
Unknown
Launch site
Taiyaun Space Center, China (TSC)
Object type
Payload
Rocket body
Debris
Shape & HBR
Unknown shape, 0.1 m
Radar Cross Section
Small (<0.1 m²)

Expand to show TLE details & history
Last TLE update: 22 hours ago

TLE from 22 hours ago
0 FENGYUN 1C DEB
1 31313U 99025BPR 26104.20590584  .00000311  00000-0  15877-3 0  9998
2 31313  99.0108  15.8202 0044407 190.0253 170.0042 14.22458449988032
Epoch: 2026-04-14T04:56Z
TLE epoch observation values (Epoch: 2026-04-14T04:56:30.264Z)
Latitude
-0.00006°
Longitude
99.30862°
Altitude
851.436 km
Speed
7.411 km/s
True Right ascension
01h 03m 16s
True Declination
0° 00' 00"
Sunlit
Object was in daylight at epoch
Visualization orbit readout
Latitude
Unknown
Longitude
Unknown
Altitude
Unknown
Speed
Unknown
Apparent Right ascension
Unknown
Apparent Declination
Unknown
Sunlit
N/A
Visualization observer readout
Local Sidereal Time
09:04:18
Azimuth
Unknown
Elevation
Unknown
Doppler factor
Unknown
Orbital elements
Apogee altitude
846.159 km
Perigee altitude
782.281 km
Semi-major axis
7,192.357 km
Eccentricity
0.00444
Inclination
99.0108°
RAAN
15.8202°
Arg. of periapsis
190.0253°
True anomaly
170.09205°
Mean anomaly
170.0042°
Eccentric anomaly
170.04817°
Mean motion
3.55825 °/min
Orbital period
101.17 mins
BSTAR
0.00015877
Loading maneuver chart data...
Computing Atmospheric mass density...

Documentation

Showing up to 5 results
|